K5EBQ Weather Reports


Display with metric or nautical units.
time (UTC)temp
F
wind
direction
speed
MPH
gust
MPH
rain 1hr
in
rain 24hr
in
rain mn
in
humidity
%
barometer
mb
20260831030106 86 221 0.0 0.0 0.00 0.00 0.00 73 1012.0
20260831024604 86 232 0.0 0.0 0.00 0.00 0.00 72 1011.9
20260831023057 87 194 0.0 0.0 0.00 0.00 0.00 70 1011.6
20260831021602 87 153 0.0 0.0 0.00 0.00 0.00 68 1011.4
20260831020106 88 154 0.0 0.0 0.00 0.00 0.00 67 1011.1
20260831014607 88 217 0.0 0.0 0.00 0.00 0.00 65 1011.0
20260831013057 89 204 0.0 0.0 0.00 0.00 0.00 64 1011.1
20260831011610 90 150 0.0 0.0 0.00 0.00 0.00 62 1010.9
20260831010054 91 77 0.0 0.0 0.00 0.00 0.00 60 1010.8
20260831004554 92 171 0.0 0.0 0.00 0.00 0.00 57 1010.7
20260831003056 93 123 0.0 0.0 0.00 0.00 0.00 52 1010.7
20260831001603 94 162 6.0 25.0 0.00 0.00 0.00 50 1010.5
20260831000052 95 173 11.0 46.0 0.00 0.00 0.00 50 1010.4
20260830234551 96 226 9.0 28.0 0.00 0.00 0.00 49 1010.4
20260830233053 97 107 11.0 54.0 0.00 0.00 0.00 47 1010.3
20260830231553 98 178 9.0 36.0 0.00 0.00 0.00 45 1010.2
20260830230049 98 150 5.0 30.0 0.00 0.00 0.00 44 1010.3
20260830224608 98 171 10.0 30.0 0.00 0.00 0.00 42 1010.3
20260830223051 98 188 0.0 0.0 0.00 0.00 0.00 42 1010.4
20260830221548 98 154 0.0 45.0 0.00 0.00 0.00 42 1010.3
20260830220054 99 146 0.0 48.0 0.00 0.00 0.00 43 1010.4
20260830214554 98 153 14.0 39.0 0.00 0.00 0.00 43 1010.4
20260830213045 99 189 15.0 44.0 0.00 0.00 0.00 41 1010.6
20260830211543 100 111 9.0 30.0 0.00 0.00 0.00 40 1010.9
20260830210039 100 52 8.0 23.0 0.00 0.00 0.00 41 1011.0
20260830204538 100 161 5.0 35.0 0.00 0.00 0.00 41 1011.2
20260830203035 100 205 18.0 46.0 0.00 0.00 0.00 42 1011.4
20260830201531 100 209 14.0 28.0 0.00 0.00 0.00 42 1011.8
20260830200030 98 213 12.0 25.0 0.00 0.00 0.00 45 1011.9
20260830194526 98 225 11.0 29.0 0.00 0.00 0.00 44 1012.2
20260830193024 98 84 10.0 36.0 0.00 0.00 0.00 45 1012.5
20260830191524 99 221 31.0 47.0 0.00 0.00 0.00 46 1012.7
20260830190019 99 150 30.0 59.0 0.00 0.00 0.00 47 1012.9
20260830184516 98 156 0.0 32.0 0.00 0.00 0.00 48 1013.1
20260830183013 98 257 14.0 32.0 0.00 0.00 0.00 50 1013.4
20260830181511 96 223 48.0 72.0 0.00 0.00 0.00 49 1013.7
20260830180010 97 87 26.0 63.0 0.00 0.00 0.00 50 1014.0
20260830174508 96 139 17.0 39.0 0.00 0.00 0.00 52 1014.1
20260830173006 95 317 7.0 32.0 0.00 0.00 0.00 57 1014.4
20260830171507 96 275 7.0 41.0 0.00 0.00 0.00 56 1014.5
20260830170003 96 279 14.0 54.0 0.00 0.00 0.00 57 1014.5
20260830164610 94 275 17.0 64.0 0.00 0.00 0.00 59 1014.6
20260830163100 93 180 5.0 39.0 0.00 0.00 0.00 59 1014.8
20260830161610 93 205 5.0 46.0 0.00 0.00 0.00 61 1014.8
20260830160052 92 263 0.0 36.0 0.00 0.00 0.00 65 1014.7
20260830154551 90 135 0.0 1.0 0.00 0.00 0.00 68 1014.9
20260830153046 87 205 0.0 0.0 0.00 0.00 0.00 75 1014.9
20260830151545 87 205 0.0 0.0 0.00 0.00 0.00 75 1014.7
20260830150044 87 205 0.0 42.0 0.00 0.00 0.00 76 1014.7
20260830144543 88 247 16.0 55.0 0.00 0.00 0.00 77 1014.8
20260830143058 87 219 3.0 46.0 0.00 0.00 0.00 78 1014.8
20260830141541 86 205 0.0 0.0 0.00 0.00 0.00 81 1014.8
20260830140041 85 210 0.0 0.0 0.00 0.00 0.00 83 1014.8
20260830134541 84 210 0.0 0.0 0.00 0.00 0.00 83 1014.7
20260830133030 84 210 0.0 0.0 0.00 0.00 0.00 85 1014.5
20260830131527 81 210 0.0 0.0 0.00 0.00 0.00 90 1014.4
20260830130031 79 210 0.0 0.0 0.00 0.00 0.00 94 1014.4
20260830124524 77 210 0.0 0.0 0.00 0.00 0.00 95 1014.2
20260830123023 77 210 0.0 0.0 0.00 0.00 0.00 94 1014.1
20260830121530 77 210 0.0 0.0 0.00 0.00 0.00 94 1014.0
20260830120020 77 210 0.0 0.0 0.00 0.00 0.00 94 1014.0
20260830114519 77 210 0.0 0.0 0.00 0.00 0.00 94 1013.9
20260830113019 77 210 0.0 0.0 0.00 0.00 0.00 94 1013.8
20260830111516 77 210 0.0 0.0 0.00 0.00 0.00 93 1013.7
20260830110019 77 210 0.0 0.0 0.00 0.00 0.00 93 1013.6
20260830104513 77 210 0.0 0.0 0.00 0.00 0.00 93 1013.5
20260830103013 78 210 0.0 0.0 0.00 0.00 0.00 92 1013.4
20260830101511 78 210 0.0 0.0 0.00 0.00 0.00 92 1013.3
20260830100013 78 210 0.0 0.0 0.00 0.01 0.00 92 1013.1
20260830094518 78 210 0.0 0.0 0.00 0.01 0.00 91 1013.1
20260830093007 78 210 0.0 0.0 0.00 0.01 0.00 91 1013.1
20260830091506 79 210 0.0 0.0 0.00 0.01 0.00 91 1013.1
20260830090005 79 210 0.0 0.0 0.00 0.01 0.00 91 1013.2
20260830084503 79 210 0.0 0.0 0.00 0.01 0.00 91 1013.3
20260830083002 79 210 0.0 0.0 0.00 0.01 0.00 91 1013.3
20260830081503 79 210 0.0 0.0 0.00 0.01 0.00 90 1013.3
20260830080100 79 210 0.0 0.0 0.00 0.01 0.00 90 1013.4
20260830074610 80 210 0.0 0.0 0.00 0.01 0.00 90 1013.4
20260830073101 80 210 0.0 0.0 0.00 0.01 0.00 89 1013.5
20260830071600 80 210 0.0 0.0 0.00 0.01 0.00 89 1013.6
20260830070054 80 210 0.0 0.0 0.00 0.01 0.00 88 1013.6
20260830064553 80 210 0.0 0.0 0.00 0.01 0.00 88 1013.5
20260830063051 81 210 0.0 0.0 0.00 0.01 0.00 87 1013.4
20260830061551 81 210 0.0 0.0 0.00 0.01 0.00 87 1013.5
20260830060055 81 210 0.0 0.0 0.00 0.01 0.00 86 1013.5
20260830054553 82 210 0.0 0.0 0.00 0.01 0.00 85 1013.5
20260830053050 82 210 0.0 0.0 0.00 0.01 0.00 84 1013.4
20260830051544 83 210 0.0 0.0 0.00 0.01 0.00 83 1013.4
20260830050042 83 206 0.0 0.0 0.00 0.01 0.01 83 1013.4
20260830044544 83 220 0.0 0.0 0.00 0.01 0.01 82 1013.5
20260830043041 83 221 0.0 0.0 0.00 0.01 0.01 80 1013.6
20260830041550 84 192 0.0 0.0 0.00 0.01 0.01 80 1013.6
20260830040042 84 182 0.0 0.0 0.00 0.01 0.01 79 1013.4
20260830034539 84 173 0.0 0.0 0.00 0.01 0.01 78 1013.4
20260830033042 85 196 0.0 0.0 0.00 0.01 0.01 77 1013.4
20260830031538 85 196 0.0 0.0 0.00 0.01 0.01 75 1013.3